When you browse on this site, cookies collect data to enhance your experience and personalize the content and advertising you see.
Visit our Privacy Policy to learn more. By continuing to use the site, you agree to this use of cookies and data.
  • In Hungary
  • List of Countries
  • For 7 days
  • Water Temperature
  • Satellite Maps
  • Weather Map
  • News
  • Weather Widgets
  • user-avatar
    Login

    Hourly Weather Vyshnivchyk

    Today, 20 February, Wednesday

    Time Temperature Precipitation Wind Pressure Humidity
    00:00 +3°C° 0 mm 2 mps 735 mmHg 90%
    01:00 +3°C° 0 mm 2 mps 734 mmHg 89%
    02:00 +3°C° 0 mm 1 mps 734 mmHg 87%
    03:00 +2°C° 0 mm 2 mps 734 mmHg 87%
    04:00 +2°C° 0 mm 2 mps 734 mmHg 87%
    05:00 +1°C° 0 mm 3 mps 734 mmHg 87%
    06:00 +1°C° 0 mm 3 mps 734 mmHg 87%
    07:00 +1°C° 0 mm 3 mps 734 mmHg 87%
    08:00 0°C° 0 mm 4 mps 734 mmHg 87%
    09:00 +1°C° 0.1 mm 5 mps 734 mmHg 85%
    10:00 +2°C° 0.1 mm 5 mps 735 mmHg 84%
    11:00 +3°C° 0.1 mm 6 mps 735 mmHg 82%
    12:00 +3°C° 0 mm 6 mps 735 mmHg 79%
    13:00 +3°C° 0 mm 6 mps 735 mmHg 75%
    14:00 +4°C° 0 mm 6 mps 735 mmHg 69%
    15:00 +4°C° 0 mm 6 mps 736 mmHg 69%
    16:00 +5°C° 0 mm 5 mps 736 mmHg 70%
    17:00 +3°C° 0 mm 5 mps 736 mmHg 70%
    18:00 +3°C° 0 mm 5 mps 736 mmHg 73%
    19:00 +2°C° 0 mm 5 mps 736 mmHg 75%
    20:00 +1°C° 0 mm 5 mps 736 mmHg 78%
    21:00 +1°C° 0 mm 5 mps 737 mmHg 78%
    22:00 +1°C° 0 mm 5 mps 737 mmHg 78%
    23:00 +1°C° 0 mm 5 mps 737 mmHg 78%

    Tomorrow, 21 February, Thursday

    Time Temperature Precipitation Wind Pressure Humidity
    00:00 +1°C° 0 mm 6 mps 737 mmHg 79%
    01:00 +1°C° 0 mm 6 mps 737 mmHg 80%
    02:00 -1°C° 0 mm 6 mps 737 mmHg 82%
    03:00 -1°C° 0 mm 6 mps 738 mmHg 83%
    04:00 -1°C° 0 mm 6 mps 738 mmHg 84%
    05:00 -1°C° 0 mm 6 mps 738 mmHg 86%
    06:00 -2°C° 0 mm 6 mps 738 mmHg 86%
    07:00 -2°C° 0 mm 6 mps 739 mmHg 87%
    08:00 -2°C° 0 mm 6 mps 739 mmHg 87%
    09:00 -1°C° 0 mm 6 mps 739 mmHg 81%
    10:00 0°C° 0 mm 7 mps 739 mmHg 76%
    11:00 0°C° 0 mm 7 mps 739 mmHg 70%
    12:00 +2°C° 0 mm 7 mps 739 mmHg 71%
    13:00 +2°C° 0 mm 7 mps 739 mmHg 71%
    14:00 +2°C° 0 mm 7 mps 739 mmHg 71%
    15:00 +2°C° 0.1 mm 6 mps 739 mmHg 75%
    16:00 +2°C° 0.1 mm 5 mps 739 mmHg 79%
    17:00 +2°C° 0.1 mm 5 mps 738 mmHg 83%
    18:00 +3°C° 0.1 mm 4 mps 738 mmHg 84%
    19:00 +3°C° 0.1 mm 4 mps 738 mmHg 85%
    20:00 +3°C° 0.1 mm 4 mps 738 mmHg 86%
    21:00 +3°C° 0.1 mm 4 mps 738 mmHg 85%
    22:00 +3°C° 0.1 mm 4 mps 738 mmHg 83%
    23:00 +3°C° 0.1 mm 4 mps 738 mmHg 82%

    Day after tomorrow, 22 February, Friday

    Time Temperature Precipitation Wind Pressure Humidity
    00:00 +2°C° 0.5 mm 5 mps 737 mmHg 82%
    01:00 +1°C° 0.5 mm 5 mps 737 mmHg 82%
    02:00 +1°C° 0.5 mm 5 mps 736 mmHg 82%
    03:00 +1°C° 0.6 mm 5 mps 736 mmHg 83%
    04:00 +1°C° 0.6 mm 5 mps 736 mmHg 83%
    05:00 +1°C° 0.6 mm 5 mps 735 mmHg 84%
    06:00 +1°C° 0.5 mm 5 mps 735 mmHg 86%
    07:00 0°C° 0.5 mm 5 mps 735 mmHg 88%
    08:00 -1°C° 0.5 mm 5 mps 735 mmHg 90%
    09:00 -3°C° 0.3 mm 6 mps 736 mmHg 87%
    10:00 -4°C° 0.3 mm 7 mps 737 mmHg 84%
    11:00 -6°C° 0.3 mm 8 mps 737 mmHg 80%
    12:00 -6°C° 0.1 mm 8 mps 738 mmHg 76%
    13:00 -6°C° 0.1 mm 8 mps 739 mmHg 71%
    14:00 -6°C° 0.1 mm 7 mps 740 mmHg 66%
    15:00 -7°C° 0 mm 7 mps 741 mmHg 64%
    16:00 -8°C° 0 mm 7 mps 742 mmHg 62%
    17:00 -8°C° 0 mm 7 mps 742 mmHg 60%
    18:00 -9°C° 0 mm 7 mps 743 mmHg 59%
    19:00 -9°C° 0 mm 7 mps 744 mmHg 57%
    20:00 -9°C° 0 mm 7 mps 744 mmHg 56%
    21:00 -11°C° 0 mm 7 mps 745 mmHg 56%
    22:00 -11°C° 0 mm 7 mps 745 mmHg 56%
    23:00 -11°C° 0 mm 7 mps 746 mmHg 56%

    23 February, Saturday

    Time Temperature Precipitation Wind Pressure Humidity
    00:00 -11°C° 0 mm 7 mps 746 mmHg 56%
    01:00 -11°C° 0 mm 7 mps 746 mmHg 56%
    02:00 -12°C° 0 mm 7 mps 747 mmHg 55%
    03:00 -12°C° 0 mm 7 mps 747 mmHg 56%
    04:00 -12°C° 0 mm 7 mps 747 mmHg 57%
    05:00 -12°C° 0 mm 7 mps 747 mmHg 58%
    06:00 -12°C° 0 mm 7 mps 748 mmHg 60%
    07:00 -12°C° 0 mm 7 mps 748 mmHg 61%
    08:00 -11°C° 0 mm 6 mps 749 mmHg 63%
    09:00 -11°C° 0 mm 6 mps 749 mmHg 61%
    10:00 -10°C° 0 mm 6 mps 749 mmHg 59%
    11:00 -10°C° 0 mm 5 mps 749 mmHg 57%
    12:00 -10°C° 0 mm 6 mps 750 mmHg 56%
    13:00 -9°C° 0 mm 6 mps 750 mmHg 56%
    14:00 -9°C° 0 mm 6 mps 750 mmHg 55%
    15:00 -9°C° 0 mm 6 mps 750 mmHg 57%
    16:00 -9°C° 0 mm 6 mps 749 mmHg 58%
    17:00 -8°C° 0 mm 5 mps 749 mmHg 59%
    18:00 -8°C° 0 mm 5 mps 750 mmHg 61%
    19:00 -10°C° 0 mm 5 mps 750 mmHg 63%
    20:00 -10°C° 0 mm 5 mps 750 mmHg 65%
    21:00 -9°C° 0 mm 4 mps 750 mmHg 65%
    22:00 -9°C° 0 mm 4 mps 750 mmHg 65%
    23:00 -8°C° 0 mm 3 mps 751 mmHg 65%

    24 February, Sunday

    Time Temperature Precipitation Wind Pressure Humidity
    00:00 -8°C° 0 mm 3 mps 750 mmHg 65%
    01:00 -8°C° 0 mm 3 mps 750 mmHg 65%
    02:00 -8°C° 0 mm 3 mps 750 mmHg 65%
    03:00 -9°C° 0 mm 3 mps 750 mmHg 66%
    04:00 -9°C° 0 mm 3 mps 749 mmHg 67%
    05:00 -9°C° 0 mm 3 mps 749 mmHg 67%
    06:00 -9°C° 0 mm 3 mps 749 mmHg 67%
    07:00 -9°C° 0 mm 3 mps 749 mmHg 66%
    08:00 -9°C° 0 mm 3 mps 749 mmHg 66%
    09:00 -7°C° 0 mm 3 mps 749 mmHg 59%
    10:00 -7°C° 0 mm 4 mps 749 mmHg 52%
    11:00 -5°C° 0 mm 4 mps 749 mmHg 44%
    12:00 -4°C° 0 mm 4 mps 749 mmHg 43%
    13:00 -3°C° 0 mm 4 mps 748 mmHg 41%
    14:00 -3°C° 0 mm 4 mps 747 mmHg 39%
    15:00 -3°C° 0 mm 4 mps 747 mmHg 42%
    16:00 -3°C° 0 mm 4 mps 746 mmHg 45%
    17:00 -3°C° 0 mm 4 mps 746 mmHg 48%
    18:00 -3°C° 0 mm 4 mps 746 mmHg 49%
    19:00 -3°C° 0 mm 4 mps 745 mmHg 51%
    20:00 -4°C° 0 mm 5 mps 745 mmHg 52%
    21:00 -3°C° 0 mm 4 mps 745 mmHg 52%
    22:00 -3°C° 0 mm 4 mps 744 mmHg 52%
    23:00 -3°C° 0 mm 4 mps 744 mmHg 52%

    25 February, Monday

    Time Temperature Precipitation Wind Pressure Humidity
    00:00 -3°C° 0 mm 4 mps 743 mmHg 57%
    01:00 -2°C° 0 mm 4 mps 742 mmHg 62%
    02:00 -2°C° 0 mm 5 mps 742 mmHg 68%
    03:00 -2°C° 0.4 mm 5 mps 741 mmHg 74%
    04:00 -2°C° 0.4 mm 5 mps 740 mmHg 81%
    05:00 -3°C° 0.4 mm 6 mps 739 mmHg 88%
    06:00 -3°C° 0.4 mm 6 mps 739 mmHg 87%
    07:00 -2°C° 0.4 mm 7 mps 739 mmHg 87%
    08:00 -2°C° 0.4 mm 8 mps 738 mmHg 87%
    09:00 -2°C° 0.1 mm 8 mps 738 mmHg 84%
    10:00 -1°C° 0.1 mm 9 mps 738 mmHg 81%
    11:00 -2°C° 0.1 mm 10 mps 738 mmHg 79%
    12:00 -2°C° 0.1 mm 10 mps 738 mmHg 78%
    13:00 -2°C° 0.1 mm 10 mps 738 mmHg 76%
    14:00 -2°C° 0.1 mm 10 mps 738 mmHg 75%
    15:00 -1°C° 0.1 mm 9 mps 738 mmHg 75%
    16:00 -3°C° 0.1 mm 9 mps 738 mmHg 74%
    17:00 -2°C° 0.1 mm 8 mps 738 mmHg 74%
    18:00 -2°C° 0 mm 8 mps 738 mmHg 72%
    19:00 -2°C° 0 mm 8 mps 738 mmHg 71%
    20:00 -2°C° 0 mm 8 mps 739 mmHg 69%
    21:00 -4°C° 0 mm 8 mps 739 mmHg 71%
    22:00 -4°C° 0 mm 8 mps 739 mmHg 73%
    23:00 -4°C° 0 mm 7 mps 739 mmHg 76%
    Show more